Time,TemperatureF,DewpointF,PressureIn,WindDirection,WindDirectionDegrees,WindSpeedMPH,WindSpeedGustMPH,Humidity,HourlyPrecipIn,Conditions,Clouds,dailyrainin,SoftwareType,DateUTC
2013-07-03 00:02:00,-999.0,-99.9,30.24,SSE,160,12.0,17.0,-999,-99.99,,,-99.99,,2013-07-03 04:02:00,
2013-07-03 00:11:00,-999.0,-99.9,30.24,SSE,160,12.0,17.0,-999,-99.99,,,-99.99,,2013-07-03 04:11:00,
2013-07-03 00:22:00,77.0,-99.9,30.24,SSE,161,12.0,17.0,-999,-99.99,,,-99.99,,2013-07-03 04:22:00,
2013-07-03 00:34:00,78.0,-99.9,30.24,North,-999,-999.0,-999.0,-999,-99.99,,,-99.99,,2013-07-03 04:34:00,
2013-07-03 00:43:00,-999.0,-99.9,30.24,South,171,12.0,17.0,-999,-99.99,,,-99.99,,2013-07-03 04:43:00,
2013-07-03 00:53:00,-999.0,-99.9,30.24,South,171,12.0,17.0,-999,-99.99,,,-99.99,,2013-07-03 04:53:00,
2013-07-03 01:12:00,78.0,-99.9,30.23,North,-999,-999.0,-999.0,-999,-99.99,,,-99.99,,2013-07-03 05:12:00,
2013-07-03 01:23:00,78.0,-99.9,30.23,North,-999,-999.0,-999.0,-999,-99.99,,,-99.99,,2013-07-03 05:23:00,
2013-07-03 02:01:00,-999.0,-99.9,30.23,SSE,167,13.0,16.0,-999,-99.99,,,-99.99,,2013-07-03 06:01:00,
2013-07-03 02:08:00,77.0,-99.9,30.23,North,-999,-999.0,-999.0,-999,-99.99,,,-99.99,,2013-07-03 06:08:00,
2013-07-03 02:50:00,77.0,-99.9,30.23,SSW,204,15.0,21.0,-999,-99.99,,,-99.99,,2013-07-03 06:50:00,
2013-07-03 03:08:00,76.0,-99.9,30.22,North,-999,-999.0,-999.0,-999,-99.99,,,-99.99,,2013-07-03 07:08:00,
2013-07-03 03:40:00,78.0,-99.9,30.21,North,-999,-999.0,-999.0,-999,-99.99,,,-99.99,,2013-07-03 07:40:00,
2013-07-03 03:48:00,78.0,-99.9,30.21,North,-999,-999.0,-999.0,-999,-99.99,,,-99.99,,2013-07-03 07:48:00,
2013-07-03 04:12:00,-999.0,-99.9,30.21,SSW,192,14.0,18.0,-999,-99.99,,,-99.99,,2013-07-03 08:12:00,
2013-07-03 04:25:00,78.0,-99.9,30.21,SSW,197,16.0,18.0,-999,-99.99,,,-99.99,,2013-07-03 08:25:00,
2013-07-03 04:59:00,-999.0,-99.9,30.21,SSW,212,7.0,9.0,-999,-99.99,,,-99.99,,2013-07-03 08:59:00,
2013-07-03 05:16:00,-999.0,-99.9,30.21,SSW,195,8.0,12.0,-999,-99.99,,,-99.99,,2013-07-03 09:16:00,
2013-07-03 05:27:00,-999.0,-99.9,30.21,SSW,195,8.0,12.0,-999,-99.99,,,-99.99,,2013-07-03 09:27:00,
2013-07-03 05:40:00,-999.0,-99.9,30.21,South,188,10.0,13.0,-999,-99.99,,,-99.99,,2013-07-03 09:40:00,
2013-07-03 06:28:00,-999.0,-99.9,30.23,South,176,9.0,11.0,-999,-99.99,,,-99.99,,2013-07-03 10:28:00,
2013-07-03 06:48:00,79.0,-99.9,30.23,North,-999,-999.0,-999.0,-999,-99.99,,,-99.99,,2013-07-03 10:48:00,
2013-07-03 07:07:00,-999.0,-99.9,30.24,South,183,11.0,14.0,-999,-99.99,,,-99.99,,2013-07-03 11:07:00,
2013-07-03 07:39:00,-999.0,-99.9,30.24,South,176,14.0,19.0,-999,-99.99,,,-99.99,,2013-07-03 11:39:00,
2013-07-03 07:59:00,-999.0,-99.9,30.25,South,190,10.0,12.0,-999,-99.99,,,-99.99,,2013-07-03 11:59:00,
2013-07-03 08:09:00,79.0,-99.9,30.25,North,-999,-999.0,-999.0,-999,-99.99,,,-99.99,,2013-07-03 12:09:00,
2013-07-03 08:26:00,-999.0,-99.9,30.26,South,176,8.0,12.0,-999,-99.99,,,-99.99,,2013-07-03 12:26:00,
2013-07-03 08:38:00,79.0,-99.9,30.26,North,-999,-999.0,-999.0,-999,-99.99,,,-99.99,,2013-07-03 12:38:00,
2013-07-03 09:09:00,-999.0,-99.9,30.27,South,176,10.0,12.0,-999,-99.99,,,-99.99,,2013-07-03 13:09:00,
2013-07-03 09:17:00,-999.0,-99.9,30.27,South,176,10.0,12.0,-999,-99.99,,,-99.99,,2013-07-03 13:17:00,
2013-07-03 09:25:00,-999.0,-99.9,30.27,South,174,11.0,13.0,-999,-99.99,,,-99.99,,2013-07-03 13:25:00,
2013-07-03 09:49:00,80.0,-99.9,30.27,North,-999,-999.0,-999.0,-999,-99.99,,,-99.99,,2013-07-03 13:49:00,
2013-07-03 09:56:00,80.0,-99.9,30.27,South,179,10.0,13.0,-999,-99.99,,,-99.99,,2013-07-03 13:56:00,
2013-07-03 10:07:00,-999.0,-99.9,30.27,South,176,11.0,13.0,-999,-99.99,,,-99.99,,2013-07-03 14:07:00,
2013-07-03 10:15:00,80.0,-99.9,30.27,North,-999,-999.0,-999.0,-999,-99.99,,,-99.99,,2013-07-03 14:15:00,
2013-07-03 10:38:00,-999.0,-99.9,30.27,South,177,11.0,12.0,-999,-99.99,,,-99.99,,2013-07-03 14:38:00,
2013-07-03 10:49:00,-999.0,-99.9,30.28,South,174,11.0,12.0,-999,-99.99,,,-99.99,,2013-07-03 14:49:00,
2013-07-03 10:56:00,81.0,-99.9,30.28,North,-999,-999.0,-999.0,-999,-99.99,,,-99.99,,2013-07-03 14:56:00,
2013-07-03 11:16:00,-999.0,-99.9,30.29,South,175,10.0,14.0,-999,-99.99,,,-99.99,,2013-07-03 15:16:00,
2013-07-03 11:38:00,81.0,-99.9,30.29,North,-999,-999.0,-999.0,-999,-99.99,,,-99.99,,2013-07-03 15:38:00,
2013-07-03 12:07:00,-999.0,-99.9,30.28,South,180,14.0,15.0,-999,-99.99,,,-99.99,,2013-07-03 16:07:00,
2013-07-03 12:25:00,82.0,-99.9,30.29,South,171,12.0,15.0,-999,-99.99,,,-99.99,,2013-07-03 16:25:00,
2013-07-03 12:47:00,-999.0,-99.9,30.29,South,179,12.0,16.0,-999,-99.99,,,-99.99,,2013-07-03 16:47:00,
2013-07-03 13:01:00,-999.0,-99.9,30.29,South,183,13.0,16.0,-999,-99.99,,,-99.99,,2013-07-03 17:01:00,
2013-07-03 13:09:00,-999.0,-99.9,30.29,South,183,13.0,16.0,-999,-99.99,,,-99.99,,2013-07-03 17:09:00,
2013-07-03 13:43:00,-999.0,-99.9,30.29,South,182,14.0,16.0,-999,-99.99,,,-99.99,,2013-07-03 17:43:00,
2013-07-03 13:50:00,-999.0,-99.9,30.29,South,183,14.0,16.0,-999,-99.99,,,-99.99,,2013-07-03 17:50:00,
2013-07-03 14:26:00,-999.0,-99.9,30.28,South,182,15.0,19.0,-999,-99.99,,,-99.99,,2013-07-03 18:26:00,
2013-07-03 14:39:00,-999.0,-99.9,30.28,South,181,14.0,18.0,-999,-99.99,,,-99.99,,2013-07-03 18:39:00,
2013-07-03 15:05:00,-999.0,-99.9,30.27,South,178,13.0,18.0,-999,-99.99,,,-99.99,,2013-07-03 19:05:00,
2013-07-03 15:16:00,-999.0,-99.9,30.27,South,175,13.0,17.0,-999,-99.99,,,-99.99,,2013-07-03 19:16:00,
2013-07-03 15:30:00,-999.0,-99.9,30.27,South,176,14.0,17.0,-999,-99.99,,,-99.99,,2013-07-03 19:30:00,
2013-07-03 15:38:00,82.0,-99.9,30.26,North,-999,-999.0,-999.0,-999,-99.99,,,-99.99,,2013-07-03 19:38:00,
2013-07-03 15:49:00,82.0,-99.9,30.26,South,174,14.0,17.0,-999,-99.99,,,-99.99,,2013-07-03 19:49:00,
2013-07-03 15:58:00,82.0,-99.9,30.26,South,174,14.0,17.0,-999,-99.99,,,-99.99,,2013-07-03 19:58:00,
2013-07-03 16:26:00,-999.0,-99.9,30.26,South,183,15.0,17.0,-999,-99.99,,,-99.99,,2013-07-03 20:26:00,
2013-07-03 16:39:00,82.0,-99.9,30.26,North,-999,-999.0,-999.0,-999,-99.99,,,-99.99,,2013-07-03 20:39:00,
2013-07-03 16:47:00,-999.0,-99.9,30.26,South,178,13.0,16.0,-999,-99.99,,,-99.99,,2013-07-03 20:47:00,
2013-07-03 16:58:00,-999.0,-99.9,30.26,South,178,14.0,16.0,-999,-99.99,,,-99.99,,2013-07-03 20:58:00,
2013-07-03 17:14:00,-999.0,-99.9,30.26,South,182,14.0,16.0,-999,-99.99,,,-99.99,,2013-07-03 21:14:00,
2013-07-03 17:27:00,-999.0,-99.9,30.26,South,180,13.0,16.0,-999,-99.99,,,-99.99,,2013-07-03 21:27:00,
2013-07-03 17:37:00,-999.0,-99.9,30.26,South,180,13.0,16.0,-999,-99.99,,,-99.99,,2013-07-03 21:37:00,
2013-07-03 17:56:00,-999.0,-99.9,30.26,South,177,11.0,15.0,-999,-99.99,,,-99.99,,2013-07-03 21:56:00,
2013-07-03 18:06:00,-999.0,-99.9,30.26,South,175,12.0,14.0,-999,-99.99,,,-99.99,,2013-07-03 22:06:00,
2013-07-03 18:17:00,-999.0,-99.9,30.26,South,175,11.0,14.0,-999,-99.99,,,-99.99,,2013-07-03 22:17:00,
2013-07-03 18:27:00,-999.0,-99.9,30.26,South,175,11.0,14.0,-999,-99.99,,,-99.99,,2013-07-03 22:27:00,
2013-07-03 18:57:00,-999.0,-99.9,30.25,South,176,9.0,15.0,-999,-99.99,,,-99.99,,2013-07-03 22:57:00,
2013-07-03 19:08:00,-999.0,-99.9,30.26,South,180,11.0,14.0,-999,-99.99,,,-99.99,,2013-07-03 23:08:00,
2013-07-03 19:26:00,81.0,-99.9,30.26,South,174,10.0,13.0,-999,-99.99,,,-99.99,,2013-07-03 23:26:00,
2013-07-03 19:40:00,81.0,-99.9,30.26,North,-999,-999.0,-999.0,-999,-99.99,,,-99.99,,2013-07-03 23:40:00,
2013-07-03 20:07:00,81.0,-99.9,30.27,North,-999,-999.0,-999.0,-999,-99.99,,,-99.99,,2013-07-04 00:07:00,
2013-07-03 20:17:00,81.0,-99.9,30.27,North,-999,-999.0,-999.0,-999,-99.99,,,-99.99,,2013-07-04 00:17:00,
2013-07-03 20:38:00,80.0,-99.9,30.27,North,-999,-999.0,-999.0,-999,-99.99,,,-99.99,,2013-07-04 00:38:00,
2013-07-03 20:51:00,-999.0,-99.9,30.27,South,185,9.0,10.0,-999,-99.99,,,-99.99,,2013-07-04 00:51:00,
2013-07-03 20:58:00,80.0,-99.9,30.27,South,183,10.0,10.0,-999,-99.99,,,-99.99,,2013-07-04 00:58:00,
2013-07-03 21:06:00,-999.0,-99.9,30.27,SSE,168,7.0,9.0,-999,-99.99,,,-99.99,,2013-07-04 01:06:00,
2013-07-03 21:16:00,-999.0,-99.9,30.27,South,169,8.0,10.0,-999,-99.99,,,-99.99,,2013-07-04 01:16:00,
2013-07-03 21:40:00,-999.0,-99.9,30.28,South,172,7.0,10.0,-999,-99.99,,,-99.99,,2013-07-04 01:40:00,
2013-07-03 21:48:00,-999.0,-99.9,30.28,South,176,9.0,10.0,-999,-99.99,,,-99.99,,2013-07-04 01:48:00,
2013-07-03 21:58:00,-999.0,-99.9,30.29,South,176,9.0,12.0,-999,-99.99,,,-99.99,,2013-07-04 01:58:00,
2013-07-03 22:42:00,80.0,-99.9,30.29,North,-999,-999.0,-999.0,-999,-99.99,,,-99.99,,2013-07-04 02:42:00,
2013-07-03 23:05:00,80.0,-99.9,30.30,North,-999,-999.0,-999.0,-999,-99.99,,,-99.99,,2013-07-04 03:05:00,
2013-07-03 23:15:00,-999.0,-99.9,30.30,SSE,161,8.0,12.0,-999,-99.99,,,-99.99,,2013-07-04 03:15:00,
2013-07-03 23:29:00,-999.0,-99.9,30.30,SSE,161,8.0,12.0,-999,-99.99,,,-99.99,,2013-07-04 03:29:00,
2013-07-03 23:36:00,-999.0,-99.9,30.30,SSE,161,9.0,13.0,-999,-99.99,,,-99.99,,2013-07-04 03:36:00,
2013-07-03 23:58:00,-999.0,-99.9,30.30,SSE,159,10.0,14.0,-999,-99.99,,,-99.99,,2013-07-04 03:58:00,